Regional Weather Roundup
Issued by NWS Bismarck, ND

Home | Current Version | Previous Version | Text Only | Print | Product List | Glossary On
Versions: 1 2 3 4 5 6 7 8 9 10 11 12 13 14 15 16 17 18 19 20 21 22 23 24 25 26 27 28 29 30 31 32 33 34 35 36 37 38 39 40 41 42 43 44 45 46 47 48 49 50
000
ASUS43 KBIS 031920
RWRBIS

NWR BROADCAST TEXT
NATIONAL WEATHER SERVICE BISMARCK ND
100 PM CST TUE MAR 03 2015

NOTE: "FAIR" INDICATES FEW OR NO CLOUDS BELOW 12,000 FEET WITH NO
SIGNIFICANT WEATHER AND/OR OBSTRUCTIONS TO VISIBILITY.


CITY           SKY/WX    TMP DP  RH WIND       PRES   REMARKS
WILLISTON      NOT AVBL
MINOT          LGT SNOW   3  -7  63 W32G40    29.99F WCI -22
MINOT AFB      PTSUNNY    2  -4  74 NW31G38   29.98S BLWGSNOWWCI -23
BISMARCK       NOT AVBL
DICKINSON      CLOUDY    12  -6  44 NW30G40   29.97F WCI -10
GARRISON         N/A      6  -4  63 NW36G43   30.00F WCI -19
HETTINGER ARPT NOT AVBL
JAMESTOWN      NOT AVBL
BEACH          MOCLDY    12   0  57 NW25G36   30.02F WCI  -8
CARRINGTON     MOCLDY     5  -2  72 MISG      29.94F
HARVEY         MOCLDY     3  -2  78 NW28G38   29.97S HAZE    WCI -21
HAZEN          MOCLDY    10  -4  52 NW24G35   30.04F WCI -10
LINTON         FAIR      14   0  52 NW26G39   29.99F WCI  -6
MANDAN         MOCLDY    12  -2  52 NW25G36   30.01S WCI  -8
RUGBY          FAIR       1  -4  78 NW31G37   29.94F HAZE    WCI -24
TIOGA          LGT SNOW   1  -4  78 NW28G36   30.04S WCI -23
WATFORD CITY   FAIR       7  -4  61 NW21G40   30.03F WCI -13
$$

CITY           SKY/WX    TMP DP  RH WIND       PRES   REMARKS
GRAND FORKS    NOT AVBL
GRAND FORKS AF SUNNY     10  -6  48 NW26G36   29.91R WCI -11
DEVILS LAKE    PTSUNNY    3  -8  60 NW33G39   29.92S WCI -23
FARGO          FLURRIES  14   2  58 NW26G36   29.91R WCI  -6
CANDO          MOCLDY     3  -4  72 W30G36    29.92S WCI -21
CAVALIER       FAIR       7  -2  66 NW17G26   29.89F WCI -12
GWINNER        PTCLDY    14   1  57 NW26G33   29.94F WCI  -6
ROLLA          FAIR       1  -9  60 W23G31    29.87F WCI -21
WALHALLA         N/A      5  -4  66 NW20G29   29.90S WCI -15
$$

CITY           SKY/WX    TMP DP  RH WIND       PRES   REMARKS
BUFFALO          N/A     12   0  58 NW31G37   29.94S WCI -10
SIDNEY         PTSUNNY   12  -2  52 W20G25    30.10F WCI  -6
GLENDIVE       PTSUNNY   12  -4  48 W22G35    30.07F WCI  -7
$$

CITY           SKY/WX    TMP DP  RH WIND       PRES   REMARKS
REGINA         FLURRIES   0  -8  71 NW24G30   30.02F WCI -24
ESTEVAN        LGT SNOW   1  -8  66 W28G35    30.01F DRFTSNOWWCI -23
$$



USA.gov is the U.S. government's official web portal to all federal, state and local government web resources and services.